Preview of NWS' New Version of Forecast
This preview is not operational and should not be used for support decisions.

Regional Weather Roundup (RWR)

Issued by National Weather Service (NWS)

                            
000
ASUS46 KSEW 150810
RWRWA 

WASHINGTON REGIONAL WEATHER ROUNDUP
NATIONAL WEATHER SERVICE SEATTLE WA
100 AM PDT SUN SEP 15 2019

NOTE:"FAIR" INDICATES FEW OR NO CLOUDS BELOW 12,000 FEET WITH NO 
SIGNIFICANT WEATHER AND/OR OBSTRUCTIONS TO VISIBILITY.

WAZ507-509-555>559-150900-
SEATTLE, TACOMA, EVERETT, AND VICINITY
  
CITY           SKY/WX    TMP DP  RH WIND       PRES   REMARKS
EVERETT        LGT RAIN  58  57  97 S13       29.77F                  
BOEING FIELD   LGT RAIN  61  58  90 SE9       29.77F                  
RENTON         CLOUDY    61  59  93 S5        29.77F FOG              
SEATAC AIRPORT LGT RAIN  61  57  87 SE13      29.78F                  
JBLM-MCCHORD   LGT RAIN  59  59 100 S5        29.78F                  
PUYALLUP       CLOUDY    59  59 100 CALM      29.79F                  
BREMERTON      CLOUDY    58  56  93 S5        29.76F                  
JBLM-FT LEWIS  LGT RAIN  61  59  94 SE9       29.77F                  
TACOMA NARROWS LGT RAIN  59  56  89 S6        29.78F                  
$$
 
WAZ001-503-506-510-514-515-150900-
NORTH INTERIOR
  
CITY           SKY/WX    TMP DP  RH WIND       PRES   REMARKS
BELLINGHAM     RAIN      61  56  83 S14G21    29.71F                  
FRIDAY HARBOR  LGT RAIN  56  56 100 CALM      29.72F                  
EASTSOUND      RAIN      59  57  94 S8        29.70F                  
PORT ANGELES   RAIN      57  57 100 CALM      29.72F VSB 1            
EDIZ HOOK      LGT RAIN  55  55 100 CALM      29.71S                  
PORT TOWNSEND  CLOUDY    61  57  88 S8G15     29.70F                  
NAS WHIDBEY    LGT RAIN  62  56  80 SE16G25   29.76F                  
ARLINGTON      LGT RAIN  59  57  93 SE15      29.76F                  
BURLINGTON     CLOUDY    61  57  88 SE6G15    29.74F                  
$$
 
WAZ020-022-039-040-504-511-512-150900-
SOUTHWEST INTERIOR
  
CITY           SKY/WX    TMP DP  RH WIND       PRES   REMARKS
SHELTON        LGT RAIN  60  57  89 S3        29.73F                  
OLYMPIA        CLOUDY    60  55  83 S14       29.77F                  
CHEHALIS       CLOUDY    61  57  88 MISG      29.79F                  
KELSO          CLOUDY    61  59  93 CALM      29.82F                  
VANCOUVER      CLOUDY    65  53  65 SE5       29.84F                  
SCAPPOOSE, OR  CLOUDY    63  54  72 S3        29.82F                  
PORTLAND, OR   MOCLDY    65  53  65 SE6       29.84F                  
$$
 
WAZ021-516-517-150900-
WASHINGTON COAST
  
CITY           SKY/WX    TMP DP  RH WIND       PRES   REMARKS
FORKS          CLOUDY    59  58  96 S3        29.72F                  
HOQUIAM        LGT RAIN  61  61 100 SW17      29.75S FOG              
ASTORIA, OR    LGT RAIN  61  59  93 S13G21    29.77F FOG              
$$
 
WAZ019-023-024-040-567>569-150900-
CASCADE MOUNTAINS AND COLUMBIA GORGE
  
CITY           SKY/WX    TMP DP  RH WIND       PRES   REMARKS
STAMPEDE PASS  NOT AVBL                                               
TROUTDALE, OR  CLOUDY    64  52  64 S5        29.85F                  
HOOD RIVER, OR MOSUNNY   63  52  67 NW5       29.83S                  
THE DALLES, OR PTCLDY    66  52  60 W12       29.79S                  
$$

WAZ026-027-041>044-520-521-150900-
EAST SLOPES
  
CITY           SKY/WX    TMP DP  RH WIND       PRES   REMARKS
OMAK           CLOUDY    61  45  55 SW6       29.76F                  
WENATCHEE      CLOUDY    63  45  51 NW9       29.76F                  
ELLENSBURG     CLOUDY    57  47  69 N3        29.79F                  
YAKIMA         MOCLDY    58  48  69 W5        29.77F                  
SUNNYSIDE ARPT MOSUNNY   53  49  86 CALM      29.77                   
YAKIMA TC      PTSUNNY   61  45  55 E9        29.76F                  
$$

WAZ028-034-035-150900-
COLUMBIA BASIN
  
CITY           SKY/WX    TMP DP  RH WIND       PRES   REMARKS
EPHRATA        CLOUDY    62  42  47 NW6       29.75F                  
MOSES LAKE     CLOUDY    63  51  65 E3        29.76F                  
PASCO          PTCLDY    59  53  80 E6        29.76F                  
RICHLAND ARPT  MOSUNNY   59  51  75 CALM      29.76                   
HERMISTON, OR  CLEAR     65  48  54 SW7       29.77F                  
$$

WAZ036>038-150900-
NORTHEAST WASHINGTON
  
CITY           SKY/WX    TMP DP  RH WIND       PRES   REMARKS
SPOKANE GEIGER PTCLDY    57  43  59 SE5       29.83F                  
SPOKANE FELTS  MOCLDY    55  47  74 CALM      29.83F                  
FAIRCHILD AFB  NOT AVBL                                               
COEURDALENE,ID PTCLDY    53  47  79 CALM      29.85S                  
DEER PARK      CLOUDY    52  48  86 CALM      29.84S                  
$$

WAZ029>033-150900-
SOUTHEAST WASHINGTON
  
CITY           SKY/WX    TMP DP  RH WIND       PRES   REMARKS
PULLMAN        PTCLDY    53  43  68 CALM      29.86S                  
LEWISTON, ID   PTCLDY    61  45  55 CALM      29.80S                  
WALLA WALLA    CLEAR     64  48  56 SE7       29.80S                  
PENDLETON, OR  CLEAR     54  47  77 E5        29.80F                  
$$